CW8593 Weather Reports


Display with metric or nautical units.
time (UTC)temp
F
wind
direction
speed
MPH
gust
MPH
rain 1hr
in
rain 24hr
in
rain mn
in
humidity
%
barometer
mb
20141101085316 68 172 0.0 0.0 0.00 0.00 0.00 71 1023.6
20141101084316 68 172 0.0 0.0 0.00 0.00 0.00 73 1023.5
20141101083316 69 172 0.0 0.0 0.00 0.00 0.00 73 1023.4
20141101082316 68 172 0.0 0.0 0.00 0.00 0.00 75 1023.4
20141101081316 67 172 0.0 0.0 0.00 0.00 0.00 78 1023.5
20141101080316 65 172 0.0 0.0 0.00 0.00 0.00 81 1023.5
20141101074316 62 172 0.0 0.0 0.00 0.00 0.00 84 1023.4
20141101071316 60 172 0.0 0.0 0.00 0.00 0.00 86 1023.2
20141101070316 60 172 0.0 0.0 0.00 0.00 0.00 87 1023.1
20141101065316 59 172 0.0 0.0 0.00 0.00 0.00 86 1023.1
20141101063316 59 172 0.0 0.0 0.00 0.00 0.00 86 1022.8
20141101055316 60 172 0.0 2.0 0.00 0.00 0.00 86 1022.5
20141101054316 60 172 2.0 3.0 0.00 0.00 0.00 87 1022.4
20141101052316 61 172 0.0 2.0 0.00 0.00 0.00 86 1022.4
20141101051316 60 172 0.0 2.0 0.00 0.00 0.00 87 1022.4
20141101050317 60 172 0.0 0.0 0.00 0.00 0.00 86 1022.4
20141101045316 61 172 0.0 3.0 0.00 0.00 0.00 86 1022.4
20141101044316 61 172 0.0 0.0 0.00 0.00 0.00 87 1022.5
20141101041316 60 172 0.0 2.0 0.00 0.00 0.00 87 1022.5
20141101033316 60 172 2.0 3.0 0.00 0.00 0.00 86 1022.5
20141101025316 61 172 0.0 0.0 0.00 0.00 0.00 85 1022.5
20141101024316 61 172 0.0 0.0 0.00 0.00 0.00 85 1022.6
20141101023316 61 172 0.0 0.0 0.00 0.00 0.00 84 1022.6
20141101022316 61 172 0.0 0.0 0.00 0.00 0.00 84 1022.7
20141101021316 62 172 0.0 0.0 0.00 0.00 0.00 84 1022.8
20141101020316 62 172 0.0 0.0 0.00 0.00 0.00 84 1022.9
20141101014316 63 172 0.0 0.0 0.00 0.00 0.00 83 1023.1
20141101013316 63 172 0.0 0.0 0.00 0.00 0.00 83 1023.1
20141101011315 63 172 0.0 0.0 0.00 0.00 0.00 82 1023.1
20141101010316 63 172 0.0 0.0 0.00 0.00 0.00 82 1023.1
20141101004316 63 172 0.0 0.0 0.00 0.00 0.00 81 1023.0
20141101003315 63 172 0.0 0.0 0.00 0.00 0.00 81 1023.1
20141101002316 63 172 0.0 1.0 0.00 0.00 0.00 81 1023.2
20141101001317 63 172 0.0 0.0 0.00 0.00 0.00 81 1023.4
20141101000317 63 172 0.0 1.0 0.00 0.00 0.00 81 1023.4
20141031234316 63 172 0.0 2.0 0.00 0.00 0.00 81 1023.5
20141031231316 63 172 0.0 1.0 0.00 0.00 0.00 81 1023.5
20141031225316 64 172 0.0 0.0 0.00 0.00 0.00 80 1023.5
20141031220316 64 172 0.0 1.0 0.00 0.00 0.00 78 1023.8
20141031215316 65 172 0.0 0.0 0.00 0.00 0.00 78 1023.7
20141031214316 65 172 1.0 2.0 0.00 0.00 0.00 77 1023.8
20141031213316 65 172 0.0 2.0 0.00 0.00 0.00 77 1023.7
20141031210317 65 164 2.0 3.0 0.00 0.00 0.00 79 1023.8
20141031205315 65 164 1.0 3.0 0.00 0.00 0.00 78 1023.8
20141031203316 65 164 2.0 3.0 0.00 0.00 0.00 80 1023.8
20141031202316 65 163 0.0 2.0 0.00 0.00 0.00 80 1023.8
20141031201316 65 163 0.0 0.0 0.00 0.00 0.00 80 1023.7
20141031200316 65 163 0.0 0.0 0.00 0.00 0.00 80 1023.7
20141031195316 65 163 0.0 1.0 0.00 0.00 0.00 80 1023.7
20141031194316 65 163 0.0 0.0 0.00 0.00 0.00 81 1023.6
20141031192315 64 163 0.0 0.0 0.00 0.00 0.00 82 1023.5
20141031191316 64 163 0.0 0.0 0.00 0.00 0.00 81 1023.5
20141031185315 64 163 0.0 2.0 0.00 0.00 0.00 81 1023.3
20141031183316 65 163 0.0 2.0 0.00 0.00 0.00 80 1023.3
20141031181315 66 163 0.0 1.0 0.00 0.00 0.00 79 1023.3
20141031180316 66 163 0.0 1.0 0.00 0.00 0.00 78 1023.3
20141031175315 67 163 0.0 1.0 0.00 0.00 0.00 77 1023.3
20141031173316 67 163 0.0 3.0 0.00 0.00 0.00 77 1023.4
20141031172316 67 163 1.0 3.0 0.00 0.00 0.00 77 1023.3
20141031171316 67 163 0.0 3.0 0.00 0.00 0.00 77 1023.2
20141031165316 67 163 3.0 6.0 0.00 0.00 0.00 76 1023.0
20141031163315 67 148 2.0 3.0 0.00 0.00 0.00 76 1022.9
20141031162315 67 144 2.0 5.0 0.00 0.00 0.00 76 1022.9
20141031160315 67 120 2.0 5.0 0.00 0.00 0.00 76 1022.9
20141031155316 67 123 3.0 5.0 0.00 0.00 0.00 76 1022.9
20141031154315 67 137 3.0 5.0 0.00 0.00 0.00 76 1022.9
20141031153316 68 144 3.0 7.0 0.00 0.00 0.00 75 1022.9
20141031152316 68 123 2.0 7.0 0.00 0.00 0.00 76 1023.0
20141031151315 68 124 3.0 9.0 0.00 0.00 0.00 75 1023.1
20141031144317 69 123 2.0 10.0 0.00 0.00 0.00 74 1023.0
20141031143316 69 118 3.0 8.0 0.00 0.00 0.00 73 1023.1
20141031141317 69 103 2.0 8.0 0.00 0.00 0.00 75 1023.2
20141031140315 69 144 3.0 8.0 0.00 0.00 0.00 75 1023.1
20141031135316 69 159 5.0 8.0 0.00 0.00 0.00 75 1023.1
20141031134315 69 142 3.0 7.0 0.00 0.00 0.00 75 1023.2
20141031133315 69 139 3.0 7.0 0.00 0.00 0.00 75 1023.2
20141031131317 69 134 5.0 8.0 0.00 0.00 0.00 75 1023.4
20141031130315 69 120 3.0 8.0 0.00 0.00 0.00 75 1023.5
20141031123316 69 101 5.0 8.0 0.00 0.00 0.00 74 1023.7
20141031120315 69 119 2.0 10.0 0.00 0.00 0.00 74 1023.9
20141031115315 69 93 2.0 6.0 0.00 0.00 0.00 75 1023.9
20141031114315 68 92 3.0 7.0 0.00 0.00 0.00 74 1024.0
20141031113314 69 93 1.0 6.0 0.00 0.00 0.00 73 1024.2
20141031112316 69 77 1.0 3.0 0.00 0.00 0.00 73 1024.3
20141031111315 69 77 0.0 2.0 0.00 0.00 0.00 73 1024.4
20141031110315 69 77 2.0 3.0 0.00 0.00 0.00 73 1024.6
20141031105315 69 67 2.0 5.0 0.00 0.00 0.00 73 1024.7
20141031104315 68 86 1.0 6.0 0.00 0.00 0.00 75 1024.7
20141031103315 68 5 3.0 6.0 0.00 0.00 0.00 75 1024.8
20141031102316 68 76 1.0 5.0 0.00 0.00 0.00 76 1024.9
20141031101316 68 48 2.0 5.0 0.00 0.00 0.00 76 1024.9
20141031095316 67 53 0.0 3.0 0.00 0.00 0.00 78 1024.8
20141031094314 67 52 1.0 5.0 0.00 0.00 0.00 79 1024.8
20141031093316 66 50 2.0 3.0 0.00 0.00 0.00 79 1024.7
20141031091317 66 348 2.0 5.0 0.00 0.00 0.00 80 1024.7